Theta_e
291 288 285 284 288 289 289 288 290 291 289 287 286 285 286 286 287 290 291 291 287 288 289 290 289 290 292 294 296 298 293 290 289 290 290 291 292 292 293 294 295 294 293 296 295 296 296 297 299 303 306 307 307 309 310 311 312 315 318 319 320 320 322 321 319 318 318 318 316 317 317 317 317 316 315 314 315 314 314 311 311 311 311 310 308 306
294 286 286 288 290 291 291 289 288 288 288 287 285 283 286 287 285 291 292 293 288 288 289 291 289 291 293 295 296 298 296 293 291 291 291 292 292 293 293 294 295 297 296 293 293 294 295 296 297 299 303 304 305 306 308 310 311 313 316 318 320 321 320 320 320 319 318 319 317 317 317 317 316 315 313 313 314 314 313 310 310 310 310 309 307 304
286 285 291 292 291 289 288 288 288 288 288 287 285 284 284 286 287 290 290 290 290 287 289 290 288 290 293 295 297 297 296 297 297 296 297 295 295 295 295 295 296 297 296 294 294 294 295 296 297 298 300 304 307 307 308 309 310 311 314 317 319 320 320 320 320 320 318 319 318 318 318 317 315 316 316 316 314 313 312 310 309 309 309 308 306 305
286 285 290 292 290 289 287 288 287 287 285 283 283 282 284 288 285 285 290 291 289 288 289 287 283 289 293 295 295 297 297 297 296 296 296 296 296 296 297 298 299 298 297 295 293 293 294 295 296 297 299 302 306 306 307 308 309 311 312 316 318 319 320 319 318 315 320 319 318 319 319 318 316 314 314 315 313 313 312 309 309 308 308 308 307 306
288 293 291 289 288 288 288 287 286 285 287 287 285 284 286 286 287 287 289 288 288 290 290 287 284 286 290 291 294 297 297 291 291 292 293 294 295 296 297 297 298 298 298 297 294 293 293 294 295 297 299 301 304 306 307 308 309 310 311 314 317 318 319 319 316 317 318 316 316 316 316 315 313 312 312 311 310 311 310 310 308 308 308 308 307 307
287 290 290 288 288 289 287 287 287 285 284 286 288 287 288 289 287 288 288 286 283 286 291 289 278 280 289 291 293 295 296 297 297 292 295 294 293 294 295 296 298 298 298 297 297 294 294 295 296 296 298 300 303 306 307 309 310 311 311 313 316 318 318 318 318 317 317 315 315 314 312 309 309 306 307 305 306 308 308 309 309 309 309 308 308 307
288 287 289 289 288 286 286 285 287 287 286 284 288 289 287 287 286 285 284 284 278 281 290 288 284 279 283 288 293 295 294 295 297 296 296 296 296 295 295 297 297 297 298 296 295 295 293 294 295 296 297 299 301 304 308 309 310 311 311 312 315 317 317 318 317 317 315 316 316 314 314 312 311 309 309 310 310 310 310 310 309 309 309 309 308 307
288 288 287 287 287 287 285 286 288 287 285 284 286 286 287 286 286 286 285 284 284 284 289 287 285 282 282 288 293 294 293 293 294 295 296 296 294 294 295 297 297 298 297 298 296 294 294 295 295 296 297 299 301 303 306 308 309 310 310 311 313 315 314 317 316 316 315 315 316 315 314 312 312 311 310 310 310 311 309 309 308 308 308 308 308 308
289 290 287 287 286 285 286 289 292 287 287 290 288 286 288 288 287 286 286 286 283 283 283 287 284 279 281 287 293 293 289 291 292 294 295 296 296 294 295 296 297 298 298 297 296 294 293 294 295 297 297 299 301 302 304 306 308 310 310 310 312 314 314 315 315 315 315 314 315 315 315 312 312 312 311 310 309 309 308 309 308 307 307 307 308 308
290 289 289 287 286 286 290 290 287 287 285 285 284 286 286 284 285 286 284 284 282 282 280 285 285 281 281 287 289 291 289 289 291 294 294 295 295 295 295 296 297 298 299 296 295 295 294 295 296 297 298 299 300 302 303 305 307 308 309 309 310 311 313 314 313 314 315 315 313 314 314 313 311 311 310 310 309 309 307 308 306 306 306 306 306 307
290 292 294 289 287 289 287 287 288 287 288 286 286 285 285 283 285 283 283 282 277 277 281 285 286 284 279 285 287 287 289 292 293 294 295 296 297 295 294 294 296 298 299 297 296 295 294 295 296 297 297 298 299 301 302 303 304 306 308 309 309 311 312 312 312 313 313 314 314 314 314 313 312 311 309 308 308 308 306 306 305 305 305 306 306 306
287 288 289 287 290 289 288 289 287 284 284 286 282 281 282 283 282 281 278 279 275 275 284 286 286 285 278 282 290 292 294 294 294 293 294 295 296 297 298 297 296 297 297 297 296 295 293 292 294 295 296 297 299 300 301 302 303 304 307 308 308 309 310 311 311 311 311 312 313 313 313 313 313 311 309 308 307 307 305 306 305 305 305 304 305 305
287 287 287 287 291 291 287 287 288 285 282 282 282 284 282 279 281 276 281 274 277 278 283 286 284 279 281 287 291 293 294 295 296 296 294 294 295 297 297 295 295 296 297 297 297 295 292 293 294 295 296 297 298 300 301 302 303 304 305 307 307 308 309 310 310 310 310 310 311 312 312 313 312 312 310 309 308 307 306 306 305 304 304 304 303 303
283 284 285 287 289 289 290 286 285 284 281 286 285 283 279 277 276 276 278 280 281 283 285 284 283 281 287 289 292 292 295 297 297 297 297 294 292 293 294 294 294 296 296 297 296 294 293 293 295 296 297 297 298 300 301 302 302 303 305 306 307 307 308 309 309 309 309 310 310 311 312 312 311 311 310 309 308 307 307 307 306 305 304 303 304 303
279 280 284 288 284 288 288 288 287 286 283 283 283 283 281 278 277 273 276 274 276 279 283 286 281 277 280 285 291 293 295 295 292 291 291 292 292 292 292 294 295 296 297 298 297 296 295 295 295 297 297 297 298 300 301 302 302 303 304 305 306 306 307 308 308 309 309 309 310 310 311 311 311 311 310 309 309 308 307 307 306 306 306 304 304 304
282 282 287 288 288 287 289 289 287 285 283 286 279 283 279 280 282 278 280 279 278 279 278 280 281 280 284 291 292 293 293 295 295 294 293 293 294 294 294 294 294 296 297 298 297 297 297 296 296 297 298 298 298 299 300 301 302 303 304 305 306 306 306 307 306 308 309 309 310 310 309 310 310 308 309 308 307 308 308 307 307 306 306 306 305 305
278 281 287 291 292 287 288 286 286 286 281 280 285 283 284 286 282 281 281 284 282 280 278 286 283 286 291 291 294 294 294 295 293 293 293 292 292 292 291 291 292 293 294 296 296 296 296 297 296 297 298 298 298 299 300 301 302 303 304 304 305 306 306 306 306 307 308 309 309 309 309 309 309 309 308 308 307 307 308 307 307 306 306 306 305 305
281 282 289 288 286 287 285 286 288 286 289 286 279 283 286 288 286 280 275 278 278 275 276 282 279 281 281 277 290 287 289 291 291 292 291 291 290 289 289 290 290 291 292 294 296 296 296 296 296 298 298 299 300 300 301 301 303 304 304 304 304 305 305 306 306 306 307 307 308 308 308 308 308 308 308 308 307 307 306 306 306 306 305 304 304 304
286 280 285 288 287 286 289 289 285 287 285 285 285 283 284 276 276 282 280 272 274 272 276 278 281 280 282 281 285 284 287 289 291 290 289 288 288 288 288 289 290 292 292 293 293 294 295 296 297 297 298 299 299 300 301 302 303 303 304 304 305 305 306 306 306 306 306 307 307 308 307 307 307 307 307 307 306 306 305 305 305 304 304 304 302 301
285 280 281 289 286 286 287 285 278 281 284 287 287 286 285 283 280 278 280 280 278 272 273 273 279 276 283 282 283 285 290 290 286 285 285 286 287 287 287 289 290 291 292 292 292 293 294 296 297 297 297 297 298 300 301 301 302 302 303 303 304 305 305 306 305 305 305 306 306 306 307 307 307 306 306 305 305 305 305 304 303 302 301 302 300 301
281 284 277 284 287 286 279 283 280 283 281 281 281 280 282 281 285 284 281 279 275 273 271 271 269 276 281 285 285 289 286 284 284 284 285 285 286 287 288 289 290 291 292 292 292 292 293 295 296 294 293 293 295 297 299 301 301 302 303 302 303 303 304 304 305 305 305 305 305 304 305 305 306 305 305 304 304 304 304 304 302 302 302 299 298 299
277 281 276 279 279 279 281 285 284 282 282 281 280 278 280 278 276 273 272 284 279 272 269 268 266 274 280 287 287 282 284 284 285 284 284 285 286 288 289 290 291 291 292 292 293 292 293 294 295 294 292 292 293 295 296 300 301 301 302 303 303 303 304 304 304 305 305 304 305 304 304 304 305 304 304 303 303 303 303 302 301 300 298 297 297 296
283 280 278 275 277 279 282 284 285 285 284 283 282 280 281 279 279 273 268 270 275 274 275 272 269 269 285 283 284 284 284 284 284 285 285 286 287 288 289 290 291 292 292 293 293 293 294 295 294 294 293 294 294 296 297 298 300 301 302 303 303 303 304 305 305 305 305 305 304 304 303 303 302 303 302 301 301 302 302 301 299 298 297 296 295 294
285 275 274 277 280 280 281 283 283 283 283 280 280 281 279 276 277 274 273 275 271 271 269 268 267 271 280 282 283 284 284 284 285 286 285 286 287 288 289 290 290 291 292 293 293 293 295 294 293 292 292 294 294 296 297 299 301 301 302 303 303 303 304 304 305 305 305 305 304 304 303 302 301 300 300 300 300 300 300 299 297 295 296 295 294 293
274 276 276 269 269 271 274 277 276 278 280 277 276 278 279 278 277 277 276 276 269 270 271 268 264 269 278 282 283 283 284 284 285 286 286 285 287 288 288 289 289 291 293 293 294 294 294 294 294 295 293 293 294 295 297 298 299 300 301 302 303 304 305 305 305 305 305 305 304 304 303 302 300 299 299 299 299 299 298 297 296 294 294 294 292 292
278 276 272 265 263 262 262 263 265 269 273 276 277 277 277 277 275 274 269 270 267 271 273 269 268 275 280 282 282 283 283 283 285 285 287 286 285 285 286 287 288 290 293 294 294 294 294 295 295 294 291 291 292 294 295 295 296 299 300 301 303 303 304 305 305 305 305 304 304 303 303 302 300 299 299 299 299 298 297 295 294 293 293 292 291 291
272 276 275 273 270 268 270 272 276 277 274 272 273 275 275 277 277 275 274 270 268 271 270 272 273 274 276 279 280 282 283 283 283 283 284 284 285 285 286 286 287 290 292 291 291 292 292 293 293 295 294 293 292 293 295 295 296 298 299 300 301 303 303 304 304 304 304 304 303 303 302 302 301 300 299 298 298 297 296 294 293 292 292 291 291 290
274 272 274 274 274 274 275 274 276 277 273 274 274 274 276 276 276 274 271 269 275 271 267 275 276 274 275 278 280 281 282 282 282 283 284 284 284 284 284 285 287 290 291 291 292 292 292 292 293 293 295 295 294 294 295 296 297 298 299 300 301 301 302 303 303 303 302 302 302 302 302 302 301 300 299 298 297 295 294 293 292 292 291 290 290 290
274 270 274 275 273 275 276 276 276 276 276 275 275 275 274 276 275 273 273 275 275 270 268 274 276 274 276 279 281 282 283 283 282 283 284 284 284 284 284 285 286 289 289 290 291 291 291 291 292 293 295 296 296 296 294 294 295 296 297 298 300 300 300 301 301 301 301 301 300 301 301 301 299 298 297 295 293 292 291 291 291 290 290 290 290 290
275 271 276 275 274 275 275 276 276 275 275 275 275 275 276 276 275 275 275 276 276 274 276 276 277 276 278 279 282 282 285 284 284 284 284 284 283 283 284 285 287 288 288 288 289 289 289 290 291 293 294 295 296 296 296 296 296 296 297 298 298 299 300 299 299 300 300 299 300 300 300 299 297 296 294 292 291 291 290 290 290 289 289 289 289 289
277 269 278 275 272 272 275 276 276 275 274 273 275 276 276 276 276 276 276 277 277 276 276 275 273 274 279 283 282 284 286 284 283 282 282 282 282 282 284 286 287 287 288 288 289 289 289 289 290 292 294 295 295 296 296 297 298 297 296 296 297 298 298 297 297 298 298 298 299 299 298 297 295 293 292 291 290 290 289 289 289 289 288 288 288 288
277 272 277 274 269 269 274 274 274 275 274 273 273 274 275 275 273 275 274 275 273 271 273 273 272 273 279 281 281 282 283 281 281 280 280 281 282 282 284 286 287 287 287 288 288 288 287 289 290 292 293 294 295 295 295 296 297 297 296 296 296 297 296 295 296 297 297 298 297 296 295 294 292 291 291 290 289 289 289 289 288 288 288 288 288 287
276 274 271 271 267 268 274 274 273 273 272 270 271 274 275 275 275 274 274 275 275 275 272 270 272 277 278 280 278 280 282 281 281 280 280 281 281 283 285 286 287 287 287 287 287 287 287 288 290 292 293 294 295 294 295 296 296 296 298 297 297 296 295 295 295 295 296 296 295 294 293 292 291 291 290 290 289 289 288 288 288 288 287 287 288 287
277 275 272 274 268 269 273 273 274 270 262 265 275 277 275 272 273 271 272 274 276 277 275 277 276 278 279 278 278 279 281 280 280 281 282 281 281 283 286 287 287 287 287 288 287 287 287 288 290 292 293 294 293 293 294 295 296 298 298 298 296 295 294 294 294 294 294 293 293 293 292 291 291 290 290 289 289 288 288 287 288 288 288 288 287 286
275 275 272 274 269 267 271 271 267 263 265 274 277 277 277 276 275 274 275 276 277 278 277 276 277 278 279 279 280 281 281 281 281 281 281 283 283 284 286 287 286 286 287 287 286 286 287 288 290 292 293 293 292 292 294 297 297 297 297 297 295 293 293 293 293 293 293 292 292 292 291 291 290 290 289 289 288 288 288 288 288 287 287 287 286 286
272 271 270 270 272 270 268 266 260 261 272 275 276 277 278 277 277 275 273 276 277 277 277 276 278 279 279 279 281 281 280 280 281 281 281 282 284 286 285 284 285 286 286 286 285 286 286 288 289 291 292 292 292 293 295 296 295 294 294 295 294 293 293 293 292 293 293 292 292 291 291 290 290 290 289 288 288 288 287 288 288 287 287 287 286 287
276 274 272 268 272 265 264 265 265 271 270 272 272 273 274 272 273 272 268 272 277 279 278 277 278 278 279 280 280 280 280 280 278 280 281 282 283 284 285 285 285 286 286 286 286 286 287 289 291 292 292 291 292 293 294 294 293 293 293 293 292 292 292 292 291 292 292 292 292 291 291 290 290 289 288 288 287 287 287 287 287 287 287 286 286 286
275 270 270 268 265 269 264 262 263 262 260 266 273 276 278 278 277 277 274 272 278 278 279 278 277 278 279 279 279 280 280 277 275 277 281 282 283 284 285 286 286 286 286 286 286 287 288 289 291 292 291 290 291 293 294 293 292 292 292 292 292 291 291 291 291 292 292 292 292 292 291 290 290 289 288 288 288 288 288 288 288 287 287 286 286 285
275 275 272 268 266 265 262 261 260 259 262 272 272 275 277 278 278 279 273 268 276 277 278 278 278 278 278 278 279 280 277 273 274 278 282 282 283 284 284 285 285 286 286 286 286 286 288 289 291 291 290 290 291 293 292 291 291 291 291 291 292 291 291 291 291 292 291 292 292 291 291 290 290 289 288 288 288 288 288 287 287 287 286 287 287 286
269 268 267 264 263 263 263 261 259 260 263 270 274 276 277 279 279 274 263 264 275 278 279 278 278 278 278 279 279 278 276 273 275 279 283 283 284 284 284 284 285 286 286 287 287 288 288 289 290 289 289 290 291 292 291 291 290 289 290 291 292 291 291 291 292 292 293 292 292 291 290 290 289 289 289 288 288 288 288 288 287 286 286 286 287 286
264 263 266 266 266 266 267 264 265 266 273 276 275 277 277 278 275 266 262 270 278 279 279 279 278 279 279 279 279 277 279 280 281 283 284 284 284 284 285 286 286 286 286 286 287 288 288 288 289 288 289 291 292 291 291 290 289 289 290 290 291 291 291 292 293 293 293 292 292 290 290 290 289 289 289 289 288 288 287 287 287 286 285 285 286 285
269 270 269 270 267 265 264 262 263 266 273 276 277 278 278 274 265 265 275 280 279 279 280 280 279 280 280 280 280 280 281 283 283 284 283 283 283 284 284 285 286 286 287 287 287 287 288 288 288 288 289 291 292 291 290 290 289 289 289 290 290 291 293 293 293 292 291 291 290 290 289 289 289 289 289 288 288 287 287 287 287 286 285 286 285 284
270 267 265 266 269 269 268 263 262 259 270 276 277 276 278 270 272 278 279 280 281 280 280 280 281 281 281 280 281 282 282 282 283 283 284 284 284 284 285 285 285 285 285 286 286 287 287 287 287 288 289 291 291 290 290 289 288 289 289 289 290 293 293 293 293 291 290 290 289 289 289 289 289 289 289 288 288 287 286 286 286 285 285 285 284 283
275 267 267 269 273 265 264 261 261 270 274 278 276 271 275 277 280 280 280 278 281 281 281 281 281 282 282 281 281 282 282 282 283 283 283 284 284 284 285 285 285 285 285 286 286 287 287 287 287 288 289 290 290 290 289 289 288 289 289 289 292 292 292 292 292 290 289 289 289 289 289 288 288 288 288 288 287 287 286 285 285 285 285 284 284 283
276 273 273 268 273 269 266 269 274 276 277 278 278 278 279 281 281 281 281 281 280 280 283 281 281 283 283 282 282 282 281 281 282 282 282 282 282 283 283 284 284 285 285 285 285 286 287 286 286 287 288 290 289 289 289 289 289 288 288 291 292 291 291 291 290 289 289 288 288 288 288 288 288 288 288 288 287 286 286 285 285 284 285 285 284 283
277 277 277 274 273 276 277 277 278 278 278 278 280 281 280 281 282 282 281 280 282 282 283 281 282 281 281 281 279 279 280 280 280 280 281 281 282 282 283 284 284 284 285 285 285 285 286 286 287 287 288 289 289 289 289 289 289 288 290 292 292 292 291 290 289 289 289 288 288 288 288 287 288 288 287 287 288 287 287 285 285 285 284 284 284 284
277 276 274 272 275 271 267 276 275 276 277 278 279 281 282 282 281 282 282 282 281 281 280 281 280 279 278 277 275 275 275 274 272 272 273 274 275 276 277 278 280 281 282 282 284 285 285 286 286 287 287 287 288 289 289 289 290 290 291 291 292 291 290 289 289 288 288 288 288 288 287 287 287 287 287 287 287 287 287 286 285 285 284 284 284 284
272 278 273 274 273 271 271 275 277 278 279 279 279 279 280 281 281 281 280 280 280 280 277 272 270 269 269 268 269 269 269 269 268 269 271 271 271 272 273 274 276 278 279 281 284 285 285 286 286 286 286 287 288 289 289 290 290 291 291 291 291 290 289 288 288 288 288 287 287 287 287 287 286 287 287 287 287 287 286 286 286 285 285 285 285 284
277 277 271 274 272 274 276 277 278 278 278 279 280 280 280 279 278 278 279 276 270 267 267 268 269 267 267 267 268 267 267 267 268 268 268 269 269 269 270 271 274 277 279 281 283 284 285 285 286 286 286 287 288 289 289 289 290 290 290 290 290 289 288 288 287 287 287 287 287 287 287 287 287 287 287 287 286 287 287 286 286 286 286 287 287 286
275 272 275 274 270 270 271 274 277 272 271 273 275 277 278 279 278 273 269 267 267 266 266 265 265 266 266 266 266 266 265 266 267 268 267 268 268 269 269 270 271 274 279 281 283 284 285 286 286 286 286 287 288 289 288 289 289 290 290 290 289 288 287 287 287 287 287 287 287 287 287 287 287 287 287 287 286 286 286 286 288 288 287 286 287 288
274 275 274 271 271 270 276 277 277 274 273 274 276 277 277 275 270 266 266 265 265 265 265 264 263 264 264 265 266 265 265 265 266 267 267 268 268 269 269 269 270 272 277 280 282 283 284 285 286 286 286 287 287 288 288 289 290 290 290 289 288 288 287 287 287 287 287 286 287 287 287 287 287 287 287 287 286 286 286 286 287 288 289 288 287 288
Wind_Speed
1 1 5 7 10 9 7 7 10 11 7 3 2 4 12 12 13 11 11 7 4 4 14 12 10 19 25 24 29 28 6 8 6 10 12 12 13 14 15 17 18 16 19 16 12 12 14 16 14 12 12 12 12 13 14 15 15 15 16 15 16 11 13 13 11 11 11 13 11 11 13 14 10 9 10 10 9 9 9 10 11 11 9 8 9 8
2 3 8 10 13 9 7 5 6 9 7 5 6 6 13 11 11 14 12 8 2 4 13 11 10 20 24 23 28 26 14 12 7 12 13 14 14 14 17 19 19 19 12 6 9 10 10 11 11 10 11 11 14 13 15 18 18 16 16 17 16 14 11 13 14 12 11 12 13 12 11 10 11 11 11 10 10 10 9 10 10 11 11 11 10 9
1 7 13 9 4 2 4 5 6 7 10 3 5 7 9 11 8 12 11 5 3 4 15 12 11 17 22 24 29 27 23 14 14 15 17 14 15 14 15 17 19 18 15 9 12 10 11 14 14 13 13 15 19 19 19 19 18 17 17 16 16 15 15 13 13 12 13 11 11 13 11 12 8 9 11 11 10 10 10 10 10 10 12 12 10 11
9 5 11 8 1 2 5 3 5 7 4 5 3 3 11 9 5 12 11 11 4 5 11 4 3 14 21 23 29 27 22 13 10 11 14 13 15 16 17 16 17 18 14 13 13 12 12 13 14 13 14 16 15 15 15 15 18 17 16 16 16 16 16 15 13 12 12 11 11 11 12 12 13 10 10 10 9 10 10 10 9 9 10 12 12 12
12 17 5 3 6 4 8 7 3 6 11 5 5 6 10 10 11 10 14 5 8 11 12 8 3 8 15 19 23 23 18 4 4 6 9 10 10 14 15 16 16 19 20 16 10 10 10 12 16 19 20 15 16 17 18 18 18 15 20 19 19 17 17 15 15 15 11 7 9 9 9 10 9 9 11 11 11 11 10 11 10 11 10 11 12 12
13 10 3 3 2 1 1 8 7 3 9 8 7 9 13 14 13 13 11 7 4 11 13 11 3 6 11 20 27 21 18 22 16 7 16 12 11 12 15 19 20 17 15 15 15 13 14 17 16 15 13 15 17 18 19 19 20 19 18 19 18 15 15 16 16 17 14 11 11 12 12 13 13 14 14 16 17 14 13 12 12 11 11 11 10 10
5 3 1 2 3 5 4 3 8 2 11 7 12 3 6 10 9 8 10 4 2 11 13 4 12 11 3 13 24 22 20 26 24 20 20 17 14 12 14 15 17 16 16 10 10 10 10 14 14 15 17 20 20 21 19 18 18 20 19 19 19 17 15 16 16 17 14 15 12 15 17 16 17 18 12 12 13 13 10 10 11 11 10 11 12 11
2 6 7 6 6 6 5 9 6 6 3 8 5 3 4 7 9 9 6 8 10 4 12 6 7 11 12 14 24 22 21 25 25 26 25 19 12 14 15 16 15 15 15 13 11 11 12 14 17 20 22 21 23 22 18 18 17 19 18 19 19 16 15 16 16 18 15 16 16 15 15 14 14 17 16 15 15 13 12 11 12 10 10 11 11 12
1 8 7 6 3 4 8 8 13 3 2 13 7 6 9 11 9 6 7 11 5 4 16 16 4 4 9 13 19 18 17 23 26 25 23 20 16 12 15 15 15 15 17 11 10 9 11 14 17 19 19 22 21 16 18 18 18 18 18 19 18 18 17 16 19 19 19 15 16 16 14 13 12 12 12 12 12 13 13 14 11 11 11 11 11 12
2 1 2 1 3 10 9 9 3 5 4 4 3 3 6 5 4 6 10 11 6 2 18 20 6 11 12 11 14 13 14 22 22 23 19 18 15 12 13 12 13 14 15 8 9 10 10 14 16 19 21 18 17 16 17 17 17 17 16 18 19 19 17 16 19 19 20 19 14 14 16 17 13 11 10 12 14 14 14 15 13 12 11 10 10 10
10 1 3 2 6 3 3 6 1 3 7 4 4 4 7 5 8 5 8 6 1 9 20 23 17 10 16 11 16 10 15 20 17 14 16 19 17 12 11 11 10 14 16 13 10 9 10 12 14 12 14 17 14 11 12 14 15 15 15 18 20 21 17 17 19 20 21 19 16 15 16 18 16 14 13 12 15 14 14 14 14 13 11 11 11 10
6 4 2 3 3 3 1 6 1 1 2 0 1 3 7 8 6 2 4 1 5 13 18 19 16 12 15 15 13 15 17 20 21 21 21 20 19 19 16 10 9 10 12 16 14 12 7 7 10 9 14 14 16 13 13 14 14 16 16 17 20 18 18 17 18 19 20 18 18 16 16 17 17 16 13 16 16 15 17 15 14 12 11 11 11 11
10 5 3 7 3 9 3 7 9 6 4 3 4 5 11 13 7 5 0 4 8 14 12 11 9 4 15 19 17 14 15 21 20 19 17 15 15 17 15 14 11 12 15 18 18 13 8 9 12 13 16 13 12 17 19 19 17 17 18 20 21 20 20 19 18 20 20 19 18 18 17 16 14 16 15 16 15 13 14 13 14 14 13 12 11 11
8 4 0 3 1 1 7 11 11 9 3 9 9 11 11 11 7 12 10 9 12 11 6 10 1 11 14 11 9 15 20 23 26 20 15 12 11 13 16 14 15 18 19 19 16 14 12 11 12 15 16 17 18 20 20 19 18 18 19 22 24 23 21 19 19 20 20 20 19 18 17 16 14 14 15 14 14 14 13 13 14 14 14 13 14 13
15 15 1 4 3 2 4 4 6 8 5 8 4 4 5 3 9 17 8 15 14 15 10 11 14 7 12 10 4 14 19 16 11 8 11 14 11 11 11 14 17 18 20 18 17 18 17 14 15 15 14 15 17 19 19 17 18 18 19 21 23 21 20 20 20 18 20 19 19 18 17 15 13 14 13 13 13 14 14 13 15 14 14 14 13 15
7 14 10 4 5 4 14 5 1 1 4 7 3 1 4 12 4 15 15 17 18 17 15 10 13 3 11 7 7 9 12 13 11 19 16 18 18 18 19 20 20 21 22 21 19 21 21 18 15 14 12 12 12 15 15 17 17 17 19 20 23 23 22 22 20 19 20 19 17 18 19 19 16 12 11 11 11 12 14 14 14 14 14 14 14 13
2 13 8 13 10 6 12 2 2 2 7 4 7 12 15 6 3 14 14 13 23 14 16 11 13 10 8 9 13 13 17 20 17 22 19 22 20 21 21 23 23 23 22 21 19 18 22 19 12 13 12 10 10 9 13 17 18 21 18 17 20 18 17 20 20 20 18 17 17 19 19 17 16 16 16 15 15 15 13 13 13 13 13 12 12 13
7 15 18 15 18 5 0 1 7 4 4 8 7 9 8 9 10 5 13 8 10 17 15 7 17 12 11 13 8 23 20 18 19 20 26 24 27 27 27 26 28 28 26 24 20 17 18 16 12 12 11 12 17 20 20 19 18 18 19 21 21 20 21 19 19 18 17 18 18 17 19 19 18 17 17 15 15 13 13 12 12 11 12 13 12 12
0 14 10 15 9 6 11 13 8 6 1 4 14 2 13 8 13 7 10 18 12 12 10 10 19 16 15 13 13 21 20 14 16 18 23 29 29 28 28 31 30 30 28 28 24 20 19 18 15 12 15 17 16 14 13 13 14 13 14 17 21 24 24 23 20 19 16 17 15 16 18 20 19 16 14 14 14 13 14 15 14 14 14 12 12 12
2 9 9 5 12 10 14 7 14 8 5 5 8 12 2 6 8 12 5 16 12 20 16 19 9 10 3 10 19 19 10 13 23 28 27 29 30 28 26 26 26 26 26 27 27 21 20 18 13 13 13 11 12 12 11 12 12 13 14 13 15 16 16 17 16 16 17 18 16 15 15 15 15 15 15 14 15 15 16 15 15 14 13 15 12 13
3 1 15 10 14 17 14 3 9 9 12 12 12 14 12 7 10 14 9 10 13 14 10 14 13 6 6 16 17 10 19 26 28 29 29 28 29 27 25 26 26 25 24 26 26 24 22 16 12 8 6 3 2 5 7 9 12 15 15 14 15 17 18 17 17 17 17 15 15 16 18 18 17 18 16 15 15 15 15 14 14 14 14 11 13 13
1 3 12 13 14 9 18 8 4 11 15 15 14 17 14 16 14 9 12 2 8 8 13 13 20 14 15 12 9 22 27 27 28 30 31 29 30 28 25 25 26 25 25 26 26 24 20 14 10 8 5 4 4 5 8 10 10 11 14 14 14 14 15 18 18 17 17 15 15 18 18 18 16 16 15 16 16 16 15 14 14 14 12 14 13 13
1 5 7 12 12 14 16 19 16 15 14 17 14 14 5 7 9 11 16 13 13 13 16 19 20 18 5 10 18 16 19 22 24 26 30 30 30 29 28 28 27 26 25 25 25 23 20 17 11 9 8 7 9 10 10 9 11 13 13 13 13 16 17 17 18 17 17 17 17 18 17 17 16 16 17 17 16 17 16 15 14 13 15 13 12 12
5 3 9 8 10 15 20 15 12 9 6 8 9 12 14 13 10 13 12 14 17 16 15 11 15 16 6 6 12 16 15 18 20 24 28 26 25 28 30 28 29 28 27 25 23 21 20 16 9 7 7 9 8 10 14 14 12 11 11 12 13 16 17 15 15 15 16 15 16 17 16 16 16 17 17 18 16 18 17 15 14 13 15 14 12 14
6 3 8 14 11 14 14 7 4 4 9 12 14 15 17 19 17 17 16 12 15 12 14 15 22 12 2 7 13 20 23 23 22 22 20 21 21 23 26 26 25 27 26 26 26 25 24 21 18 14 8 9 9 7 7 7 7 8 11 11 13 14 14 15 14 15 16 17 17 17 17 17 16 17 19 19 17 18 17 15 15 14 15 14 14 14
4 7 5 8 11 18 20 16 13 13 9 11 12 20 15 17 22 17 15 11 15 17 18 17 17 15 17 20 23 21 22 23 22 20 20 18 17 20 21 24 26 25 22 24 27 27 29 25 21 15 9 5 4 6 4 4 4 5 8 11 11 12 13 14 13 15 16 16 17 17 19 18 17 18 19 19 18 18 17 16 15 15 13 15 15 14
1 5 8 7 8 16 18 15 13 14 14 15 19 17 20 15 14 14 14 13 16 19 15 14 18 24 22 19 21 24 21 22 19 18 18 19 21 22 22 22 22 20 20 23 21 21 23 26 29 25 18 11 5 7 8 8 7 8 10 12 13 13 13 13 13 14 16 17 18 17 18 19 19 18 18 18 17 15 14 15 15 15 15 14 16 15
1 7 13 11 14 20 21 21 17 16 19 20 20 21 18 18 18 19 16 19 20 18 19 10 20 21 21 22 23 25 21 15 12 14 17 16 19 18 21 24 22 18 19 21 22 24 24 24 23 23 23 20 13 9 8 9 11 14 15 17 15 14 14 13 14 14 15 16 16 17 19 18 17 16 17 14 13 13 14 14 14 15 13 13 15 16
3 10 16 11 19 21 22 21 16 17 17 21 23 22 22 18 19 21 21 23 21 16 20 21 22 23 23 23 25 18 14 9 13 13 13 16 17 20 23 23 20 17 19 21 21 22 24 24 22 23 20 18 20 16 13 10 9 9 9 9 10 11 13 13 14 16 16 16 17 18 17 15 14 14 13 12 11 11 12 13 13 12 12 13 13 12
5 8 14 9 14 15 20 18 18 21 21 20 20 21 20 22 23 25 26 25 23 21 19 22 23 27 23 22 12 15 13 9 10 12 15 16 20 21 23 20 16 17 20 20 19 19 21 22 22 22 20 18 18 19 19 15 12 11 11 12 12 12 14 11 14 16 16 17 18 16 15 15 13 13 13 12 13 13 13 13 12 12 12 12 12 12
4 7 13 12 12 16 19 17 15 17 16 21 21 22 24 22 24 24 21 17 16 18 21 24 25 22 14 12 15 15 8 9 14 17 16 17 19 22 21 18 15 19 21 19 19 20 21 21 21 21 21 19 19 19 19 19 15 13 11 10 11 13 11 9 12 13 15 17 16 14 14 13 14 13 14 14 13 12 13 13 12 12 13 12 12 13
4 9 7 10 11 15 14 16 17 17 19 22 22 23 21 20 18 13 13 17 20 22 24 23 19 16 13 16 16 13 10 12 16 19 19 17 19 20 17 16 16 19 21 21 19 19 21 22 21 21 21 20 19 20 19 19 18 16 14 12 14 14 11 11 12 14 15 15 12 13 14 14 13 14 15 13 14 14 13 13 13 14 14 14 14 12
3 6 9 9 12 13 16 16 19 20 18 15 14 15 16 13 18 22 24 26 21 17 17 16 15 15 17 17 18 17 14 14 16 17 20 23 19 18 15 12 14 17 20 20 20 20 21 20 19 19 20 17 17 19 21 20 18 18 17 16 15 13 11 14 15 15 15 12 11 13 13 12 14 15 15 16 15 14 13 14 14 14 14 16 14 13
8 8 9 6 10 13 14 16 16 13 13 13 7 13 17 22 27 27 23 22 22 16 15 15 17 18 19 18 14 16 18 18 18 19 16 19 22 17 13 12 15 18 19 20 18 19 19 18 18 17 16 15 17 18 18 17 17 18 18 18 16 14 15 15 15 14 16 13 13 12 13 14 15 15 16 15 15 14 15 15 16 15 13 12 11 13
10 9 9 5 9 12 11 14 12 11 13 9 20 25 21 23 25 23 21 21 23 20 20 19 19 20 21 16 12 13 15 20 22 20 20 17 18 15 13 14 15 17 21 20 21 20 19 19 19 18 16 16 18 19 17 17 18 22 22 17 15 13 14 15 16 16 15 15 14 12 12 14 15 15 14 15 15 15 16 17 14 14 12 12 14 15
4 7 6 4 10 9 7 6 12 14 10 19 30 28 19 12 14 19 20 21 24 19 16 16 18 22 19 15 14 13 16 21 22 16 13 15 11 12 14 14 16 18 21 20 21 21 20 19 18 17 16 15 17 18 15 15 17 20 24 18 15 15 17 17 17 18 17 16 16 16 16 16 16 16 15 15 15 16 17 17 17 16 13 12 11 9
6 3 4 9 3 14 8 11 15 17 17 18 22 11 10 15 16 17 19 22 28 16 14 18 23 23 14 10 16 21 19 17 21 18 6 11 12 11 14 17 18 19 19 20 19 21 19 17 17 16 14 14 16 17 14 14 16 19 22 18 12 12 14 14 16 17 18 20 19 18 17 16 17 17 16 16 17 17 18 17 16 14 12 14 13 13
3 4 2 8 5 6 14 13 9 9 11 18 22 20 12 15 18 17 13 15 20 14 13 18 19 12 12 22 24 25 22 17 21 22 9 11 13 16 16 18 18 19 18 18 20 19 19 18 16 15 13 16 16 14 12 13 16 18 20 18 11 11 14 16 19 19 18 19 19 19 18 16 17 18 18 17 19 19 17 16 14 16 16 18 16 15
4 2 4 6 10 6 7 8 11 11 13 20 27 20 19 19 23 10 10 17 17 13 11 10 13 19 24 23 23 20 16 17 23 22 15 10 15 17 21 20 19 20 20 19 20 22 22 20 19 17 14 13 16 13 10 13 16 16 18 17 11 11 13 16 19 18 20 20 17 15 15 16 17 18 20 21 20 18 18 18 17 14 13 13 14 16
5 1 5 6 7 5 8 10 13 2 10 20 20 21 20 22 14 12 18 18 16 16 16 16 23 24 21 18 19 16 17 18 19 26 18 17 16 19 19 21 22 23 23 22 20 21 22 21 20 18 15 15 14 10 9 12 14 15 16 16 12 11 15 17 17 18 18 16 15 14 12 13 18 19 20 21 18 16 16 14 12 13 14 13 12 12
2 3 3 13 12 13 14 13 11 10 15 21 20 20 18 12 13 14 18 17 15 20 24 24 25 23 19 20 15 16 19 18 22 28 27 21 20 20 18 21 22 21 24 23 24 23 22 22 20 18 16 14 11 7 7 10 12 15 15 15 14 12 14 14 14 14 14 14 14 14 16 16 17 20 20 19 20 18 14 13 14 14 14 14 11 11
7 5 5 9 13 12 9 12 16 13 19 22 12 12 6 14 15 15 14 18 21 27 22 23 24 25 21 20 19 19 20 24 24 28 26 22 21 21 18 23 25 24 20 20 23 24 23 23 21 19 18 16 13 8 9 11 13 15 15 14 15 14 13 13 12 9 9 10 12 14 16 17 16 17 17 17 16 17 18 16 15 15 16 13 13 15
11 6 7 10 8 8 9 11 14 17 9 5 10 18 9 5 14 15 18 21 21 23 24 21 21 22 20 21 21 21 24 25 27 28 31 26 23 26 25 24 24 25 24 23 23 21 21 23 23 21 20 16 12 9 9 11 15 16 15 15 16 13 12 13 12 10 9 11 12 13 15 16 18 15 12 14 18 21 18 16 15 14 14 15 14 15
8 6 5 8 7 12 10 9 8 15 19 15 12 14 17 17 19 20 19 21 22 19 20 17 21 21 20 19 20 23 24 30 30 29 31 30 26 19 22 22 24 26 22 20 19 22 20 24 23 21 18 16 11 10 10 11 14 16 17 19 16 12 12 12 13 11 11 13 13 14 14 15 16 16 15 19 18 17 18 17 17 16 15 15 15 14
7 9 4 11 8 8 11 13 17 19 21 18 14 16 21 23 22 20 23 22 23 21 17 19 20 21 20 21 27 29 29 32 30 31 31 31 33 22 27 26 25 24 24 22 20 20 20 21 22 20 19 15 12 12 11 9 12 17 19 18 14 13 12 12 13 12 13 13 13 14 13 14 14 16 16 17 19 19 17 18 17 16 14 15 14 15
7 11 9 11 16 20 19 23 25 22 22 22 17 17 21 24 25 23 20 22 18 19 17 18 20 25 27 26 22 26 24 30 34 33 28 29 25 21 18 20 22 21 23 21 22 18 19 18 19 20 19 16 14 14 10 10 10 15 19 16 14 13 12 12 13 14 16 15 15 16 16 16 15 16 14 14 15 20 20 20 19 18 16 15 15 15
6 5 4 10 17 13 15 19 18 22 20 20 22 23 22 20 20 17 19 19 19 24 26 27 25 26 26 27 30 30 31 31 31 34 36 32 31 28 24 26 26 22 23 24 22 19 18 15 18 18 16 17 15 12 11 12 12 13 14 16 15 14 12 12 14 15 15 16 15 15 17 19 16 15 15 15 12 12 16 17 18 17 17 17 17 16
9 1 8 17 20 14 20 21 24 27 27 18 16 17 19 20 25 28 24 21 23 21 21 25 29 31 29 31 29 26 30 32 31 28 28 30 29 24 19 22 25 25 24 23 17 19 17 18 18 16 16 17 15 12 13 13 14 14 14 15 15 13 10 11 12 14 13 15 14 14 16 17 20 20 16 17 16 13 13 16 18 18 19 20 19 18
8 5 10 13 13 18 21 24 25 26 30 18 11 15 18 20 25 32 31 27 24 23 22 23 21 20 23 28 30 29 30 32 29 26 27 30 28 25 25 25 23 23 23 19 18 17 16 16 14 14 16 16 13 13 13 15 16 15 14 15 13 10 10 11 12 13 13 13 13 14 15 16 17 18 17 16 16 16 16 19 18 18 18 19 18 19
4 13 14 11 12 15 17 21 21 21 25 30 35 29 24 23 21 22 21 23 24 23 25 30 34 31 27 25 24 25 28 31 34 27 28 30 28 29 27 26 27 26 23 19 17 16 14 13 14 16 15 13 12 13 14 16 17 15 12 11 10 9 10 10 10 11 11 11 12 12 13 13 14 15 15 16 16 14 10 10 14 17 16 15 19 27
9 14 10 11 13 17 24 24 17 15 19 25 31 34 29 23 18 21 23 25 29 30 27 29 32 37 39 36 28 22 25 28 35 31 29 29 27 26 24 26 26 25 22 19 17 16 15 15 13 12 13 13 12 13 14 15 16 14 11 9 8 9 10 10 9 9 10 11 11 12 13 12 12 13 14 14 14 13 13 11 8 9 10 13 22 25
Wind_Direction
155 270 255 244 248 252 248 209 227 249 251 290 271 250 265 265 277 278 274 255 184 270 268 270 244 270 278 283 286 292 289 249 260 261 252 251 254 257 259 259 257 253 248 241 227 217 210 205 202 195 186 188 189 189 186 189 193 195 192 188 193 189 182 186 185 184 180 174 175 180 183 179 177 172 169 173 177 178 178 170 169 166 165 161 155 153
62 335 261 229 243 256 265 249 254 277 274 233 266 268 270 263 266 269 280 297 213 186 276 276 274 275 280 284 285 291 292 277 255 259 259 258 252 254 256 261 262 257 261 254 230 216 208 202 198 189 186 178 181 195 191 192 193 193 193 193 193 188 188 190 190 186 186 180 177 177 181 175 173 169 171 176 178 182 178 175 173 168 164 163 162 161
9 232 261 249 258 281 262 262 255 247 271 270 210 257 281 274 264 284 285 255 273 170 266 281 273 276 283 285 286 290 289 281 267 247 256 252 259 257 254 258 266 270 262 243 237 217 208 202 194 188 191 191 191 189 192 195 189 191 193 195 191 190 192 194 194 189 192 185 175 174 174 170 170 176 172 174 180 177 177 180 178 174 165 162 165 165
321 262 244 268 329 290 299 241 264 282 263 247 241 263 258 271 321 292 280 294 273 195 277 280 234 286 286 289 285 283 287 281 249 235 238 232 244 252 255 256 264 272 270 251 233 221 208 200 197 194 193 193 191 189 191 191 192 193 193 194 191 190 191 195 196 197 198 188 177 173 165 167 165 171 169 165 170 177 175 179 180 178 171 167 167 170
256 274 306 315 291 286 282 295 289 290 291 269 217 230 270 283 260 242 282 315 323 287 270 263 247 282 280 287 284 288 292 271 270 276 260 263 248 254 266 274 264 262 265 263 246 224 206 201 201 199 199 187 190 191 189 189 191 191 193 192 192 190 189 191 195 196 192 176 168 163 156 156 152 147 162 164 175 178 181 179 180 184 179 174 170 174
278 277 271 298 315 6 283 317 290 223 288 289 264 221 241 255 265 273 282 341 339 293 283 288 315 213 257 266 276 283 295 292 279 264 275 258 246 251 259 264 269 265 255 253 249 227 209 207 209 206 197 193 197 195 195 191 191 188 191 190 191 190 188 187 186 191 192 191 177 168 163 167 168 172 170 179 176 178 182 183 181 181 179 176 174 175
250 318 25 306 308 318 324 266 267 158 277 314 282 289 244 243 260 274 284 350 255 279 289 111 275 279 271 270 276 283 289 288 290 290 279 278 270 254 251 257 264 266 271 258 242 236 211 213 208 205 199 200 199 202 193 191 191 189 186 186 187 187 187 186 181 181 186 194 192 185 182 180 179 177 185 172 170 173 177 175 181 179 183 180 175 178
339 316 339 328 321 314 339 310 279 158 232 267 272 28 323 300 281 273 266 219 250 259 291 273 176 261 271 259 268 276 289 286 289 288 286 286 264 256 254 256 261 266 264 262 252 234 219 212 204 206 206 202 204 199 188 191 189 188 185 183 185 186 185 184 180 181 185 190 195 194 190 185 187 184 179 175 174 170 165 175 179 179 181 181 182 179
292 299 302 314 311 315 283 252 280 111 236 275 313 331 287 276 279 272 247 259 231 313 275 275 142 243 238 260 266 279 278 278 282 280 284 287 281 259 259 261 265 269 270 264 261 244 220 218 212 213 210 210 208 195 191 191 188 186 186 185 182 184 184 183 179 182 187 192 194 197 196 192 194 187 174 170 167 168 169 173 179 179 180 181 183 183
270 196 280 198 323 292 268 290 349 150 287 282 315 288 279 263 247 223 253 255 253 250 267 268 201 249 258 249 264 267 268 272 268 275 283 279 282 275 271 269 273 281 284 283 255 253 232 224 222 215 214 210 206 200 198 192 186 186 182 182 182 186 184 183 181 183 186 192 194 197 200 199 191 180 174 172 171 172 172 174 176 179 179 180 181 184
264 261 162 296 245 220 341 307 238 216 236 289 310 304 286 296 264 237 233 232 62 219 256 259 254 225 272 229 249 244 251 263 278 280 283 284 286 279 271 270 281 285 295 306 291 267 248 234 232 221 216 212 205 203 195 192 189 185 186 185 185 187 184 182 183 183 185 188 194 202 200 199 193 185 175 178 176 171 171 174 175 178 179 178 181 180
307 328 338 246 50 335 64 318 342 125 236 167 326 288 308 277 280 224 279 93 207 252 249 259 257 226 254 266 243 244 259 267 273 279 279 283 292 295 295 304 302 308 311 300 293 283 278 266 242 213 215 208 201 192 195 198 192 186 186 185 188 186 186 186 184 184 186 187 194 201 202 200 196 186 182 183 183 178 176 175 174 175 173 179 180 180
302 282 236 300 262 82 351 341 317 346 2 33 325 325 328 302 309 284 358 288 228 256 262 261 276 324 226 256 274 269 272 276 275 277 284 282 280 294 316 333 328 309 306 308 312 329 301 251 238 219 216 204 193 196 196 193 189 187 184 184 187 191 187 187 185 185 186 187 193 197 201 202 195 191 187 186 184 180 178 174 172 172 178 174 177 184
263 233 189 266 45 106 24 340 315 334 344 332 318 313 311 305 296 276 263 252 264 248 276 300 92 250 278 277 264 270 265 266 276 287 296 314 330 331 329 327 325 326 324 322 326 315 290 267 250 233 219 202 201 201 195 192 189 189 188 187 187 190 186 184 186 187 187 190 192 194 198 198 193 194 186 186 183 181 181 177 177 178 176 177 181 177
322 331 163 7 335 325 340 265 247 256 268 252 187 205 231 267 298 298 289 286 275 282 288 282 304 250 284 287 280 237 250 264 286 330 351 350 349 344 329 334 340 338 334 334 333 333 321 293 265 251 231 217 209 202 195 191 194 189 192 188 188 187 185 183 187 186 189 190 191 193 197 197 195 192 188 186 183 179 180 181 179 181 179 177 183 181
276 268 276 148 232 338 318 301 185 252 253 260 135 357 342 283 272 273 287 286 287 290 286 267 253 245 257 310 293 288 290 295 334 360 350 355 347 342 341 338 336 336 334 335 336 337 335 321 291 273 261 240 224 210 200 198 194 193 195 189 187 187 184 185 184 187 188 189 188 189 192 199 199 193 187 183 180 182 183 179 180 181 183 182 177 183
338 277 308 314 325 313 285 13 321 36 314 291 342 299 280 325 283 282 268 249 273 270 259 273 273 259 296 291 293 309 329 333 0 338 347 333 331 331 332 331 328 327 326 325 325 330 329 326 297 272 264 252 237 220 211 204 198 197 192 190 189 188 186 187 187 186 186 186 185 190 190 191 197 198 195 189 183 180 180 178 180 179 181 179 178 175
281 293 301 307 314 318 107 162 275 250 267 313 297 287 295 245 253 256 288 290 267 275 277 259 277 298 324 292 41 349 331 325 336 334 328 328 328 331 328 326 323 320 318 312 309 316 320 319 294 275 263 243 230 216 211 206 203 200 191 188 185 184 187 191 188 186 185 186 187 187 189 192 195 196 197 193 187 181 177 178 177 174 173 180 176 173
324 290 293 296 305 317 340 335 305 293 178 228 286 349 333 340 317 290 297 289 296 279 306 281 291 280 274 294 353 326 315 321 322 324 323 325 326 323 321 320 317 317 318 316 314 318 320 319 308 270 255 247 245 250 238 219 203 204 207 199 187 185 187 187 188 186 185 186 187 187 187 188 190 193 191 190 185 180 181 180 178 177 178 171 172 170
356 292 293 299 331 339 324 319 303 328 327 321 335 316 212 299 270 301 276 301 300 290 293 284 264 296 62 309 306 307 311 315 319 323 321 315 316 317 316 315 315 315 314 312 311 317 314 312 304 287 274 271 268 258 238 210 201 207 213 209 203 195 188 186 185 182 185 189 189 185 183 186 189 189 190 187 180 181 184 183 178 177 173 178 171 174
342 248 287 319 328 333 296 344 295 333 332 328 319 297 299 266 282 286 270 258 284 294 293 306 297 266 321 310 309 315 315 321 319 312 312 313 313 316 316 314 313 314 313 310 310 313 314 310 299 281 259 234 269 294 287 263 229 210 196 205 206 192 186 186 186 184 190 188 191 182 183 185 186 187 185 183 184 184 186 182 179 180 179 164 175 172
359 313 290 305 304 287 284 294 312 339 322 307 300 291 294 305 320 314 289 317 317 317 295 301 291 294 301 285 314 324 322 314 313 312 311 312 311 316 317 313 313 312 309 305 305 307 309 301 280 269 244 210 184 226 243 239 243 230 215 204 201 203 195 188 185 187 185 189 189 187 184 185 185 183 182 183 184 186 184 182 182 179 167 176 178 171
36 255 241 284 279 283 291 304 314 311 297 281 283 288 313 304 315 307 306 303 295 273 289 283 290 285 121 322 313 304 298 304 310 310 308 313 317 319 318 316 313 310 306 303 302 303 304 296 281 264 248 231 214 213 221 225 224 228 224 211 204 203 201 192 190 186 186 188 189 188 184 182 184 182 182 184 188 190 186 184 181 173 174 178 172 176
334 262 279 268 298 290 286 293 299 278 286 317 297 296 309 297 295 286 277 287 286 296 287 278 255 278 321 294 290 299 303 304 306 305 307 312 319 320 320 326 326 321 315 306 303 301 299 296 291 284 267 257 242 222 216 214 213 225 227 223 216 211 204 196 191 189 188 190 192 188 183 182 183 184 186 188 189 191 188 182 179 175 176 174 168 172
345 311 334 307 311 298 291 298 301 11 347 303 305 303 299 298 297 292 292 285 282 266 284 299 285 299 327 316 305 306 306 304 303 307 315 325 336 341 338 337 336 330 328 326 322 315 309 306 300 294 270 249 249 244 237 222 217 225 229 222 223 222 212 201 193 190 191 189 189 189 189 185 182 186 188 190 190 191 187 181 176 175 174 169 170 172
246 301 324 306 311 303 307 314 319 315 295 286 279 287 287 296 301 307 292 300 281 290 287 280 282 288 307 311 305 303 304 306 310 332 350 351 347 339 336 334 331 330 329 337 341 342 341 332 316 300 280 247 221 209 210 218 215 231 243 240 233 233 226 213 199 195 189 189 189 192 192 189 187 190 190 189 188 187 183 178 175 173 174 170 170 169
224 255 257 252 255 268 274 280 293 296 293 281 282 278 288 290 292 285 284 280 277 281 270 271 276 293 297 305 308 308 309 316 343 349 346 342 341 340 336 329 326 324 334 342 343 344 346 346 343 332 315 290 254 207 196 195 202 214 226 234 229 225 226 224 209 198 194 193 193 192 193 192 193 191 192 192 190 184 179 177 174 172 173 173 167 167
244 284 273 270 258 264 272 277 286 285 284 284 290 293 292 294 288 281 275 272 274 285 277 272 283 293 305 307 302 302 318 345 349 340 335 336 334 332 330 322 322 324 338 340 343 344 342 338 336 336 336 328 305 282 261 225 209 208 212 222 222 217 213 213 215 207 200 194 195 196 195 196 192 192 194 194 188 182 179 174 173 174 168 165 166 169
265 276 279 275 276 278 279 285 296 293 285 290 290 289 292 289 281 279 278 275 279 277 283 299 305 303 301 300 299 318 342 333 328 322 323 319 327 333 327 322 323 327 336 338 340 338 336 333 329 327 327 330 332 316 283 271 251 244 235 231 224 222 225 219 214 209 201 198 199 199 195 191 190 190 188 186 180 175 175 175 173 170 165 167 168 167
287 229 273 267 276 277 282 287 288 284 286 285 286 291 289 289 286 283 282 281 282 285 295 299 300 297 302 299 325 317 309 314 309 312 316 329 331 329 324 323 323 323 328 330 332 330 326 324 324 322 321 327 331 331 320 291 268 251 237 231 224 223 223 210 218 217 207 202 201 197 190 189 186 183 179 177 177 177 175 172 169 164 163 168 166 164
236 276 294 297 285 280 281 283 276 279 287 290 292 292 292 290 283 279 282 290 301 297 297 302 304 302 300 306 309 315 323 320 320 325 320 319 327 326 323 319 312 316 320 322 324 324 321 320 321 321 322 326 330 329 321 314 294 267 249 233 225 223 218 211 224 224 219 209 200 191 187 184 184 176 177 178 173 172 170 167 165 163 163 163 162 162
284 286 293 290 294 287 287 294 296 295 293 292 295 293 291 288 286 295 305 312 303 300 302 303 301 296 304 308 311 313 319 319 314 316 317 321 323 322 313 306 304 312 316 317 318 319 320 319 320 322 322 325 327 325 320 314 310 292 263 234 225 221 198 200 214 225 231 222 197 189 185 185 177 177 177 171 175 171 171 168 165 165 165 164 164 164
242 287 294 293 283 273 289 298 296 299 293 284 281 286 280 290 297 306 305 299 294 299 296 294 290 301 306 308 309 314 311 304 308 316 321 319 317 310 296 283 292 306 310 312 312 315 317 316 316 318 318 319 322 320 314 310 305 296 277 252 232 219 195 204 208 212 225 230 215 198 186 177 178 180 175 177 171 169 166 167 167 167 167 172 171 162
280 268 274 281 278 286 292 291 291 289 276 280 301 283 301 307 302 301 296 294 293 290 278 285 291 295 295 298 304 304 306 307 312 310 310 310 310 302 280 278 296 305 306 306 306 307 311 313 313 312 309 308 311 309 306 303 302 301 287 260 239 214 205 200 208 207 214 214 218 209 188 182 180 181 180 173 169 166 167 168 174 174 173 166 160 165
270 273 269 276 276 286 295 288 280 255 275 334 302 291 293 294 291 288 290 293 287 282 285 291 292 292 290 290 287 288 291 300 305 306 305 302 292 284 275 284 297 305 305 304 305 308 310 313 309 306 307 311 314 313 313 313 321 319 307 275 239 210 206 202 202 204 208 210 212 205 199 187 183 183 176 174 171 167 170 173 170 169 168 166 170 172
246 263 269 256 279 284 298 298 289 277 305 304 288 287 291 283 281 295 291 291 285 287 295 292 289 288 290 292 288 283 299 303 298 289 287 285 264 266 280 290 301 304 305 304 304 306 309 310 307 301 300 306 311 312 311 317 323 320 311 287 230 208 203 202 202 203 201 205 206 202 198 191 185 180 176 172 171 172 173 174 173 170 168 165 169 171
245 272 287 291 272 293 287 280 275 297 294 278 282 288 324 311 309 307 304 300 293 311 304 294 293 290 294 283 295 305 307 304 297 291 273 270 273 265 277 290 297 300 298 299 300 301 302 300 298 294 294 300 307 309 312 322 324 321 315 296 232 209 206 204 210 210 203 204 201 199 195 193 185 177 174 172 173 177 176 174 173 169 165 165 169 170
237 254 239 292 277 282 296 297 293 287 286 287 276 291 291 283 280 281 285 293 287 290 294 293 289 293 296 307 308 305 309 308 299 294 299 290 289 289 289 291 294 294 295 296 298 298 300 300 294 289 289 296 300 303 310 321 321 321 317 302 250 218 211 205 209 207 205 208 205 197 192 188 182 177 174 175 180 180 178 176 174 174 170 170 169 174
306 325 282 252 282 290 280 278 281 286 274 277 288 291 295 300 297 323 304 286 286 302 296 277 291 301 302 300 299 304 304 298 291 286 296 288 293 293 293 292 292 294 295 297 299 302 303 302 299 293 290 288 296 301 311 316 318 320 318 312 269 231 222 217 216 209 206 208 202 198 191 182 180 181 177 179 181 178 175 176 176 172 171 175 175 176
341 253 284 287 268 250 278 278 279 232 278 273 280 292 297 292 315 325 300 290 311 309 301 299 295 294 296 293 293 290 288 286 287 290 293 288 285 285 285 287 291 294 293 295 296 298 300 301 300 292 286 288 289 290 304 312 314 315 314 312 295 244 231 226 222 217 213 206 195 187 182 189 186 182 181 180 174 175 176 169 161 168 174 172 170 168
292 309 269 273 281 283 284 279 278 274 265 271 284 284 284 309 315 296 282 292 304 300 301 299 295 293 293 292 288 284 279 269 271 279 287 288 286 280 274 278 282 285 288 293 297 302 299 299 293 285 281 284 280 271 289 303 309 309 310 307 303 274 249 241 235 230 222 207 195 185 183 184 192 188 185 178 170 168 163 168 173 168 169 169 167 165
281 272 243 261 279 288 274 262 268 267 269 279 274 281 322 324 296 287 286 293 293 292 290 291 290 289 289 282 282 276 276 280 277 279 282 281 277 276 277 282 283 282 279 283 289 294 294 293 290 284 284 285 282 278 292 300 304 304 303 304 297 286 268 254 243 237 236 220 204 189 184 186 188 191 182 174 164 162 170 174 168 170 170 166 166 168
287 292 254 274 274 266 264 274 290 292 271 268 316 308 300 245 272 279 289 283 281 283 287 287 282 284 286 284 279 279 281 283 283 283 284 281 280 282 284 284 285 286 288 290 290 285 287 290 288 284 282 286 283 285 291 299 304 302 299 294 288 285 273 260 246 221 208 206 204 194 189 186 183 181 177 175 174 169 166 163 165 169 169 167 166 166
255 251 269 262 265 288 278 259 243 253 286 305 320 295 295 283 285 288 289 289 285 285 290 289 286 286 285 283 289 292 288 288 288 287 287 286 281 276 277 279 281 283 280 275 273 281 285 285 282 278 279 282 276 279 286 295 299 296 293 287 287 282 267 255 241 217 199 197 197 193 189 185 181 178 181 178 172 169 163 166 167 166 172 171 167 167
213 258 255 282 260 246 255 250 256 269 279 285 287 277 278 281 283 282 281 281 288 288 287 288 291 296 298 300 299 297 297 292 289 288 286 286 289 283 283 281 279 281 282 282 282 282 281 278 276 275 278 274 268 272 280 284 285 287 284 283 284 277 268 250 236 215 204 195 189 186 187 180 179 181 184 183 172 167 170 166 164 167 174 171 172 172
256 246 260 259 262 256 258 263 270 276 277 280 277 277 279 282 283 282 279 283 286 290 301 303 307 305 303 303 299 295 290 289 291 292 294 296 293 291 287 287 284 283 281 281 281 277 276 274 274 276 275 270 267 277 277 277 270 274 277 281 278 272 264 247 230 217 206 195 188 184 176 178 180 179 180 187 192 176 169 168 171 171 170 173 177 176
235 252 226 256 263 282 279 273 273 273 274 281 286 282 277 273 277 287 297 300 308 311 306 305 309 315 319 318 307 305 302 300 298 296 295 293 290 292 294 291 285 282 280 281 280 281 276 272 274 273 270 275 279 280 280 279 274 264 272 276 276 273 258 237 221 216 206 193 185 178 176 177 176 178 178 181 193 199 172 168 170 171 172 177 176 179
288 258 275 259 269 267 271 281 284 283 278 277 278 283 296 313 314 306 300 297 299 309 324 323 319 309 309 302 298 301 297 294 294 296 298 293 292 298 301 295 290 289 282 278 273 273 273 271 270 268 273 277 282 285 284 283 280 277 273 271 270 268 245 225 214 209 201 189 179 178 178 178 177 175 177 182 180 192 192 175 174 176 180 179 177 175
282 333 261 270 284 279 277 277 279 287 288 283 287 310 313 305 299 299 307 321 328 320 314 310 304 299 297 292 298 296 292 288 288 289 288 288 291 292 296 296 293 285 279 276 278 274 270 269 267 270 273 275 280 284 285 286 285 282 277 273 270 256 231 221 209 204 193 186 180 179 178 178 177 180 180 180 184 190 193 182 180 188 185 181 173 178
264 262 268 287 285 284 289 292 313 324 320 322 314 307 299 303 313 317 328 323 321 324 320 314 310 307 298 290 289 293 292 292 290 290 286 285 286 287 290 291 290 289 288 285 277 270 269 272 274 273 275 278 283 287 288 288 285 283 278 270 262 241 224 215 203 197 192 183 181 175 174 179 180 181 177 178 182 186 202 242 205 181 179 183 190 187
245 268 294 283 281 287 289 300 340 328 298 293 294 302 323 336 336 327 326 326 317 315 316 311 311 313 313 309 300 287 282 282 285 287 283 282 280 279 281 284 287 287 282 280 281 283 279 274 271 276 280 283 289 289 288 287 285 288 285 265 245 225 218 204 196 191 186 180 181 176 173 174 176 180 179 180 180 179 184 176 213 235 223 207 190 191